Total_Precipitation_Accumulation
0.07 0.16 0.30 0.40 0.52 0.42 0.29 0.26 0.32 0.34 0.41 0.51 0.55 0.64 0.79 0.93 1.05 1.18 1.24 1.21 1.18 1.15 1.13 1.06 1.03 0.96 0.92 0.85 0.77 0.63 0.52 0.44 0.36 0.29 0.22 0.15 0.12 0.10 0.08 0.07 0.05 0.05 0.04
0.07 0.15 0.30 0.43 0.55 0.59 0.51 0.46 0.49 0.63 0.80 0.99 1.24 1.49 1.69 1.90 2.10 2.13 1.95 1.80 1.72 1.64 1.57 1.46 1.40 1.29 1.17 1.02 0.88 0.76 0.64 0.52 0.41 0.34 0.29 0.22 0.14 0.09 0.07 0.06 0.05 0.04 0.03
0.08 0.13 0.24 0.39 0.52 0.58 0.59 0.56 0.63 0.87 1.21 1.50 1.85 2.18 2.42 2.58 2.60 2.47 2.33 2.23 2.15 2.07 1.94 1.77 1.62 1.48 1.30 1.16 0.99 0.81 0.67 0.53 0.41 0.34 0.29 0.25 0.19 0.11 0.08 0.07 0.05 0.04 0.03
0.08 0.15 0.21 0.38 0.53 0.58 0.63 0.71 0.88 1.22 1.56 1.97 2.37 2.82 3.11 3.15 3.10 2.89 2.65 2.50 2.30 2.07 1.87 1.77 1.72 1.55 1.28 1.01 0.79 0.62 0.49 0.39 0.31 0.24 0.19 0.17 0.15 0.14 0.11 0.07 0.05 0.04 0.04
0.09 0.16 0.22 0.34 0.50 0.57 0.69 0.86 1.14 1.59 2.02 2.51 2.98 3.32 3.37 3.29 3.14 2.84 2.55 2.32 2.09 1.86 1.64 1.50 1.35 1.11 0.83 0.59 0.43 0.33 0.27 0.23 0.20 0.18 0.16 0.15 0.12 0.11 0.11 0.09 0.05 0.04 0.03
0.13 0.20 0.25 0.35 0.50 0.67 0.85 1.07 1.46 1.97 2.35 2.71 3.00 3.00 2.85 2.79 2.60 2.30 1.99 1.80 1.61 1.37 1.10 0.88 0.67 0.52 0.40 0.29 0.24 0.20 0.18 0.16 0.14 0.12 0.10 0.08 0.08 0.07 0.08 0.08 0.06 0.04 0.03
0.17 0.24 0.31 0.43 0.63 0.80 1.00 1.22 1.46 1.78 2.04 2.23 2.39 2.38 2.27 2.12 1.97 1.77 1.56 1.35 1.10 0.87 0.69 0.53 0.41 0.31 0.24 0.18 0.14 0.11 0.09 0.07 0.06 0.06 0.05 0.05 0.04 0.04 0.04 0.05 0.05 0.05 0.03
0.22 0.29 0.40 0.53 0.69 0.87 1.03 1.14 1.29 1.48 1.53 1.52 1.61 1.66 1.57 1.49 1.41 1.29 1.16 0.99 0.82 0.63 0.47 0.34 0.25 0.20 0.16 0.13 0.10 0.08 0.06 0.06 0.05 0.05 0.05 0.04 0.03 0.03 0.03 0.03 0.04 0.04 0.02
0.27 0.33 0.42 0.50 0.60 0.71 0.79 0.84 0.91 1.03 1.05 1.03 1.00 1.01 0.99 0.97 0.90 0.78 0.66 0.56 0.45 0.33 0.26 0.21 0.17 0.13 0.11 0.10 0.09 0.08 0.06 0.05 0.04 0.03 0.03 0.03 0.02 0.02 0.02 0.02 0.04 0.08 0.08
0.29 0.33 0.40 0.45 0.49 0.50 0.53 0.57 0.58 0.65 0.70 0.71 0.69 0.65 0.63 0.59 0.50 0.43 0.39 0.33 0.28 0.24 0.20 0.17 0.13 0.10 0.07 0.05 0.04 0.04 0.03 0.02 0.02 0.02 0.02 0.02 0.02 0.03 0.03 0.04 0.05 0.07 0.12
0.33 0.37 0.40 0.36 0.34 0.34 0.35 0.39 0.42 0.43 0.42 0.41 0.40 0.39 0.36 0.33 0.30 0.28 0.24 0.22 0.19 0.16 0.13 0.11 0.09 0.08 0.06 0.05 0.04 0.03 0.03 0.02 0.03 0.03 0.03 0.04 0.05 0.06 0.05 0.05 0.06 0.06 0.09
0.41 0.43 0.40 0.34 0.31 0.31 0.32 0.33 0.31 0.30 0.29 0.26 0.23 0.22 0.20 0.18 0.17 0.16 0.14 0.12 0.10 0.09 0.08 0.07 0.07 0.07 0.07 0.06 0.05 0.05 0.05 0.05 0.05 0.05 0.05 0.05 0.06 0.07 0.06 0.06 0.05 0.06 0.08
0.60 0.54 0.44 0.39 0.36 0.32 0.29 0.27 0.24 0.22 0.21 0.18 0.16 0.16 0.15 0.14 0.13 0.12 0.11 0.09 0.09 0.10 0.10 0.09 0.09 0.08 0.07 0.06 0.06 0.06 0.06 0.05 0.05 0.04 0.04 0.04 0.04 0.05 0.05 0.07 0.07 0.08 0.09
0.62 0.52 0.44 0.40 0.37 0.33 0.29 0.25 0.22 0.17 0.15 0.14 0.13 0.13 0.12 0.12 0.11 0.11 0.10 0.10 0.10 0.10 0.09 0.09 0.08 0.07 0.06 0.04 0.04 0.03 0.03 0.03 0.02 0.02 0.02 0.02 0.03 0.05 0.08 0.09 0.11 0.14 0.17
0.59 0.52 0.48 0.46 0.43 0.39 0.33 0.28 0.24 0.20 0.17 0.15 0.15 0.15 0.15 0.14 0.14 0.13 0.12 0.12 0.10 0.08 0.06 0.05 0.03 0.02 0.02 0.01 0.01 0.01 0.01 0.01 0.01 0.01 0.02 0.02 0.03 0.05 0.09 0.12 0.16 0.21 0.25
0.73 0.62 0.55 0.51 0.49 0.47 0.44 0.42 0.39 0.35 0.29 0.26 0.24 0.22 0.20 0.18 0.15 0.13 0.11 0.08 0.06 0.03 0.02 0.01 0.01 0.01 0.00 0.00 0.00 0.00 0.00 0.01 0.02 0.02 0.03 0.02 0.02 0.04 0.07 0.10 0.15 0.22 0.26
0.83 0.75 0.74 0.71 0.69 0.65 0.61 0.57 0.51 0.41 0.34 0.29 0.25 0.21 0.17 0.14 0.10 0.07 0.05 0.03 0.03 0.02 0.02 0.01 0.01 0.01 0.01 0.00 0.00 0.00 0.00 0.01 0.03 0.05 0.05 0.04 0.03 0.06 0.09 0.09 0.09 0.11 0.13
0.90 0.87 0.84 0.83 0.80 0.71 0.60 0.46 0.35 0.28 0.23 0.20 0.16 0.13 0.09 0.07 0.04 0.02 0.02 0.02 0.03 0.03 0.03 0.02 0.02 0.03 0.02 0.00 0.00 0.00 0.01 0.02 0.03 0.04 0.06 0.07 0.08 0.09 0.08 0.07 0.06 0.08 0.12
0.80 0.79 0.78 0.76 0.69 0.57 0.41 0.30 0.22 0.17 0.14 0.13 0.10 0.07 0.04 0.03 0.03 0.02 0.02 0.03 0.04 0.04 0.03 0.03 0.03 0.04 0.04 0.01 0.00 0.00 0.01 0.02 0.02 0.03 0.04 0.05 0.09 0.09 0.09 0.08 0.10 0.11 0.16
0.61 0.64 0.62 0.56 0.47 0.36 0.25 0.19 0.16 0.14 0.12 0.09 0.06 0.04 0.03 0.03 0.02 0.03 0.03 0.03 0.04 0.05 0.04 0.04 0.05 0.06 0.07 0.02 0.00 0.01 0.01 0.02 0.02 0.02 0.04 0.06 0.08 0.10 0.10 0.08 0.13 0.20 0.23
0.48 0.49 0.45 0.40 0.31 0.22 0.17 0.16 0.14 0.11 0.09 0.07 0.06 0.05 0.03 0.03 0.03 0.04 0.04 0.04 0.04 0.05 0.05 0.06 0.07 0.08 0.05 0.02 0.01 0.01 0.02 0.03 0.04 0.05 0.07 0.11 0.11 0.10 0.09 0.09 0.15 0.24 0.28
0.36 0.35 0.31 0.25 0.18 0.14 0.14 0.13 0.11 0.08 0.07 0.08 0.08 0.06 0.04 0.03 0.02 0.05 0.06 0.05 0.05 0.06 0.06 0.07 0.08 0.07 0.05 0.03 0.01 0.01 0.02 0.03 0.05 0.10 0.12 0.14 0.14 0.12 0.12 0.14 0.21 0.28 0.40
0.20 0.17 0.13 0.12 0.11 0.10 0.10 0.09 0.07 0.06 0.06 0.07 0.08 0.06 0.04 0.03 0.03 0.03 0.05 0.05 0.06 0.06 0.05 0.06 0.07 0.06 0.05 0.04 0.01 0.01 0.02 0.04 0.07 0.13 0.19 0.20 0.17 0.19 0.27 0.30 0.35 0.45 0.57
0.09 0.08 0.07 0.08 0.09 0.08 0.08 0.08 0.07 0.07 0.09 0.10 0.08 0.06 0.05 0.05 0.03 0.02 0.02 0.03 0.04 0.04 0.04 0.05 0.06 0.06 0.06 0.05 0.04 0.03 0.04 0.06 0.09 0.15 0.25 0.34 0.35 0.39 0.47 0.53 0.57 0.58 0.60
0.07 0.08 0.09 0.08 0.07 0.06 0.05 0.05 0.05 0.07 0.10 0.09 0.06 0.05 0.05 0.04 0.04 0.04 0.03 0.02 0.02 0.01 0.02 0.03 0.04 0.06 0.06 0.05 0.06 0.07 0.07 0.08 0.12 0.16 0.23 0.33 0.41 0.48 0.52 0.55 0.56 0.54 0.51
0.08 0.08 0.07 0.06 0.04 0.03 0.02 0.01 0.02 0.04 0.06 0.06 0.04 0.04 0.03 0.03 0.03 0.05 0.05 0.02 0.00 0.01 0.01 0.02 0.03 0.03 0.05 0.05 0.05 0.07 0.09 0.11 0.15 0.18 0.28 0.37 0.44 0.51 0.53 0.53 0.51 0.47 0.44